Location: Newark
(48.0000°N, 67.0000°E)
Time: 18:34:29
(UTC+00:00)

N. Korean satellite - Pass Details

Date: 28 January 2020
Orbit: 456 x 506 km, 97.2° (Epoch: 17 February)

Event Time Altitude Azimuth Distance (km) Brightness Sun altitude
Rises 13:29:10 0° 208° (SSW) 2,462 10.8 -10.9°
Reaches altitude 10° 13:31:53 10° 232° (SW) 1,597 10.4 -11.3°
Maximum altitude 13:33:55 15° 269° (W) 1,329 10.0 -11.7°
Drops below altitude 10° 13:35:59 10° 306° (NW) 1,612 9.8 -12.0°
Sets 13:38:45 0° 330° (NNW) 2,500 10.4 -12.5°
